Location: Unspecified
(0.0000°N, 0.0000°E)
Time: 14:07:16
(UTC+02:00)

GPS 2-12 Rocket1 - Visible Passes

Search period start: 30 July 2015 00:00
Search period end: 09 August 2015 00:00
Orbit: 589 x 656 km, 20.0° (Epoch: 30 July)

Date Brightness Start Highest point End Pass type
(mag) Time Alt. Az. Time Alt. Az. Time Alt. Az.
30 Jul 5.4 06:52:31 10° NNW 06:55:49 19° NNE 06:59:07 10° ENE visible
30 Jul 3.1 20:43:06 10° WSW 20:47:47 79° SSE 20:52:34 10° ENE visible
30 Jul 5.1 22:27:13 10° W 22:29:58 26° NW 22:29:58 26° NW visible
31 Jul 6.0 05:29:58 11° NNE 05:29:58 11° NNE 05:30:47 10° NE visible
31 Jul 4.7 07:08:48 10° NW 07:12:54 30° NNE 07:16:58 10° E visible
31 Jul 3.6 21:00:09 10° W 21:04:45 58° NNW 21:09:21 10° ENE visible
31 Jul 5.9 22:45:03 10° WNW 22:46:28 15° NW 22:46:28 15° NW visible
01 Aug 5.4 05:46:24 18° NNE 05:46:24 18° NNE 05:49:22 10° ENE visible
01 Aug 3.8 07:25:22 10° NW 07:29:56 53° NNE 07:34:24 10° E visible
01 Aug 4.6 21:17:31 10° W 21:21:45 34° NNW 21:25:48 11° NE visible
02 Aug 4.7 06:02:55 28° N 06:03:14 28° NNE 06:07:18 10° E visible
02 Aug 3.1 07:42:13 10° WNW 07:46:54 86° SSW 07:51:30 10° ESE visible
02 Aug 5.3 21:35:16 10° WNW 21:38:51 21° NNW 21:42:09 11° NNE visible
03 Aug 3.8 06:19:26 42° NNW 06:20:17 48° NNE 06:24:48 10° E visible
03 Aug 5.7 21:53:35 10° NW 21:56:01 14° NNW 21:58:24 10° NNE visible
04 Aug 3.0 06:35:57 48° WNW 06:37:15 85° NNE 06:41:56 10° ESE visible
04 Aug 5.3 20:25:33 10° WNW 20:29:10 22° NNW 20:32:47 10° NNE visible
05 Aug 3.3 06:52:27 34° W 06:54:13 54° SSW 06:58:47 10° SE visible
05 Aug 5.7 20:43:46 10° NW 20:46:19 14° NNW 20:48:49 10° NNE visible
06 Aug 5.9 05:31:48 13° ESE 05:31:48 13° ESE 05:32:19 10° ESE visible
06 Aug 4.0 07:08:53 21° WSW 07:11:13 32° SSW 07:15:23 10° SE visible
07 Aug 5.5 05:48:10 17° SE 05:48:10 17° SE 05:49:13 10° ESE visible
07 Aug 4.7 07:25:15 12° WSW 07:28:17 20° SSW 07:31:42 10° SSE visible
08 Aug 5.2 06:04:27 18° SE 06:04:27 18° SE 06:05:52 10° SE visible
08 Aug 5.2 07:43:08 10° SW 07:45:26 13° SSW 07:47:39 10° SSE visible
